Hourly Data Report for July 17, 2021

KITCHENER/WATERLOO
ONTARIO
Current Station Operator: NAVCAN

43°27'39.000" N
80°22'43.000" W
321.60 m
6144239
71368
YKF

Download Data

Hourly Data (July 2021)
Hourly Data Report for July 17, 2021
TIME
LST
Temp Definition
°C
Dew Point Definition
°C
Rel Hum Definition
%
Precip. Amount Definition
mm

Wind Dir Definition
10's deg

Wind Spd Definition
km/h
Visibility Definition
km
Stn Press Definition
kPa
Hmdx Definition


Wind Chill Definition


Weather Definition


00:00 18.0 14.5 80 0.0 3 5 16.1 97.98     LegendNANA
01:00 17.2 15.1 88 0.0 8 8 16.1 97.99     LegendNANA
02:00 17.5 15.0 85 0.0 3 5 16.1 97.99     LegendNANA
03:00 17.0 15.2 89 0.0 2 8 16.1 97.98     LegendNANA
04:00 16.4 15.8 96 0.5 7 8 14.5 97.99     Rain
05:00 16.5 15.9 96 0.5 4 5 12.9 98.02     Rain
06:00 16.5 16.0 97 0.2 8 9 12.9 98.00     Rain
07:00 16.9 16.4 97 0.8 4 5 9.7 98.05     Rain, Fog
08:00 17.3 16.8 97 0.8 4 9 11.3 98.06     Rain
09:00 17.7 16.9 95 0.0 3 11 14.5 98.06     LegendNANA
10:00 17.7 16.3 92 0.5 6 24 14.5 98.09     Rain
11:00 17.3 15.7 90 0.2 5 15 16.1 98.10     Rain
12:00 18.0 16.4 90 0.5 3 17 16.1 98.10     Rain
13:00 18.6 14.5 77 0.0 3 21 16.1 98.11     LegendNANA
14:00 19.5 13.6 69 0.0 5 24 16.1 98.12     LegendNANA
15:00 20.3 13.8 66 0.0 3 24 16.1 98.12     LegendNANA
16:00 20.9 15.4 70 0.0 6 21 16.1 98.10 25   LegendNANA
17:00 20.5 15.7 74 0.0 4 9 16.1 98.10 25   LegendNANA
18:00 20.6 15.5 72 0.0 2 8 16.1 98.07 25   LegendNANA
19:00 20.8 15.3 70 0.0 36 9 16.1 98.10 25   LegendNANA
20:00 18.4 16.5 88 0.0   0 16.1 98.12     LegendNANA
21:00 17.1 16.0 93 0.0 35 4 16.1 98.15     LegendNANA
22:00 15.9 15.1 95 0.0 31 5 16.1 98.15     LegendNANA
23:00 16.7 15.1 90 0.0 33 9 16.1 98.17     LegendNANA

Notes on Data Quality.

Legend

  • E = Estimated
  • M = Missing
  • NA = Not Available*
  • [empty] = Indicates an unobserved value
Date modified: